[[{"header":{"parameterUnit":"m.s-1","parameterCategory":1,"la1":30.2992,"la2":30.254,"lo1":-89.0895,"lo2":-89.0443,"dy":0.0025,"dx":0.0025,"nx":19,"ny":19,"refTime":"2026-05-13T03:00:00:Z","depth":0,"parameterNumber":2,"parameterNumberName":"U-component_of_WINDS"},"data":[0,0,0,0.7383,0.7387,0.7581,0.7581,0.782,0.7822,0,0,0,0,0,0,0,0,0,0,0,0.7316,0.7317,0.7382,0.7387,0.758,0.7581,0.7819,0.7822,0,0,0,0,0,0,0,0,0,0,0,0.7315,0.7317,0.7318,0.7388,0.758,0.7582,0.7819,0.7677,0,0,0,0,0,0,0,0,0,0,0.7491,0.7419,0.7316,0.7318,0.7389,0.758,0.7582,0.767,0.7686,0.7727,0,0.7757,0,0.7793,0.7837,0.7838,0,0,0,0.7395,0.7406,0.7466,0.7318,0.739,0.758,0.7495,0.7679,0.7697,0.7747,0.7761,0.777,0.7797,0.7838,0.7839,0.8042,0.8042,0,0,0.7384,0.7346,0.7454,0.7477,0.7442,0.7489,0.7501,0.769,0.7704,0.7762,0.7776,0.7801,0.784,0.7841,0.8041,0.8042,0,0,0,0.7348,0.7338,0.7395,0.7467,0.7502,0.7495,0.7509,0.7695,0.7717,0.7778,0.7804,0.7841,0.7844,0.804,0.8041,0.8032,0,0,0,0.7342,0.7317,0.739,0.7368,0.7498,0.76,0.7509,0.7703,0.7726,0.7802,0.7841,0.7846,0.804,0.8041,0.8031,0.8035,0,0,0,0.7307,0.7313,0.7338,0.7366,0.7447,0.7598,0.7631,0.7709,0.7741,0.7838,0.7847,0.8039,0.8041,0.803,0.8034,0.8079,0,0,0,0.7258,0.7327,0.7337,0.7424,0.7445,0.7589,0.763,0.774,0.7821,0.7842,0.804,0.8041,0.803,0.8033,0.8078,0.8111,0.812,0,0,0.7324,0.7333,0.7388,0.7402,0.7535,0.7563,0.7696,0.7808,0.7854,0.7977,0.7983,0.8032,0.8034,0.8079,0.8184,0.8191,0,0,0,0.7396,0.7435,0.7478,0.7553,0.7639,0.7714,0.781,0.7852,0.7959,0.7908,0.806,0.8063,0.8091,0.8109,0.8115,0.8143,0.8047,0.8047,0.8047,0.7435,0.7488,0.7583,0.766,0.7732,0.7831,0.7896,0.797,0.8003,0.8039,0.8076,0.8133,0.8153,0.8158,0.8186,0.8096,0.8096,0.8096,0.8096,0.7538,0.7602,0.7644,0.7751,0.7809,0.7901,0.8,0.802,0.8117,0.8109,0.8136,0.8124,0.8164,0.8192,0.8096,0.8096,0.8096,0.8096,0.8096,0.7571,0.7611,0.7659,0.7775,0.7859,0.7936,0.8027,0.8076,0.8123,0.815,0.8197,0.8198,0.8206,0.8169,0.8169,0.8169,0.8169,0.8169,0.817,0.7586,0.7641,0.771,0.7808,0.7864,0.7944,0.8046,0.8104,0.8181,0.821,0.8211,0.8242,0.8156,0.8135,0.8173,0.8172,0.8172,0.8172,0.8171,0.7674,0.7662,0.7768,0.7824,0.7945,0.8027,0.8088,0.8203,0.8258,0.8302,0.8328,0.8256,0.827,0.8266,0.8248,0.8314,0.8314,0.8314,0.8314,0.7703,0.7714,0.7835,0.7922,0.8013,0.808,0.8203,0.8284,0.8366,0.8405,0.8402,0.8383,0.8376,0.8395,0.8388,0.8373,0.8468,0.8469,0.8469,0.7761,0.7784,0.7877,0.7954,0.8054,0.8139,0.8257,0.8359,0.845,0.8476,0.8437,0.843,0.84,0.8387,0.8412,0.84,0.8373,0,0]},{"header":{"parameterUnit":"m.s-1","parameterCategory":1,"la1":30.2992,"la2":30.254,"lo1":-89.0895,"lo2":-89.0443,"dy":0.0025,"dx":0.0025,"nx":19,"ny":19,"refTime":"2026-05-13T03:00:00:Z","depth":0,"parameterNumber":3,"parameterNumberName":"V-component_of_WINDS"},"data":[0,0,0,-3.8612,-3.8611,-3.8537,-3.8537,-3.8432,-3.8431,0,0,0,0,0,0,0,0,0,0,0,-3.863,-3.8629,-3.8613,-3.8611,-3.8537,-3.8537,-3.8433,-3.8431,0,0,0,0,0,0,0,0,0,0,0,-3.863,-3.863,-3.8628,-3.861,-3.8537,-3.8537,-3.8433,-3.8491,0,0,0,0,0,0,0,0,0,0,-3.8565,-3.8577,-3.863,-3.8628,-3.861,-3.8537,-3.8537,-3.8494,-3.8488,-3.8463,0,-3.8441,0,-3.8435,-3.8424,-3.8424,0,0,0,-3.8613,-3.8582,-3.8567,-3.8628,-3.8609,-3.8537,-3.8571,-3.8491,-3.8483,-3.8454,-3.8439,-3.8436,-3.8433,-3.8423,-3.8423,-3.8279,-3.8278,0,0,-3.8617,-3.8613,-3.8572,-3.8562,-3.8576,-3.8573,-3.8568,-3.8486,-3.8469,-3.8439,-3.8433,-3.8431,-3.8423,-3.8422,-3.828,-3.8279,0,0,0,-3.8627,-3.8616,-3.8603,-3.8566,-3.8554,-3.8571,-3.8566,-3.8473,-3.8469,-3.8432,-3.843,-3.8422,-3.8421,-3.828,-3.8279,-3.8239,0,0,0,-3.863,-3.8622,-3.8605,-3.8602,-3.8555,-3.8513,-3.8554,-3.8475,-3.8466,-3.8431,-3.8422,-3.842,-3.8281,-3.828,-3.8242,-3.8219,0,0,0,-3.8636,-3.8623,-3.8611,-3.8602,-3.857,-3.8514,-3.8506,-3.8473,-3.8464,-3.8424,-3.8419,-3.8282,-3.828,-3.8245,-3.8224,-3.8182,0,0,0,-3.8641,-3.8573,-3.8611,-3.8535,-3.8571,-3.8492,-3.8506,-3.8446,-3.8407,-3.8421,-3.8281,-3.8279,-3.8246,-3.8226,-3.8184,-3.8145,-3.8128,0,0,-3.8553,-3.8562,-3.8518,-3.855,-3.8464,-3.8503,-3.8411,-3.8375,-3.8372,-3.831,-3.8306,-3.8241,-3.8224,-3.8182,-3.8041,-3.8028,0,0,0,-3.8489,-3.8457,-3.8435,-3.84,-3.8376,-3.8353,-3.8334,-3.8322,-3.827,-3.8341,-3.8216,-3.8205,-3.8181,-3.8162,-3.8151,-3.813,-3.8271,-3.8271,-3.8271,-3.8355,-3.8362,-3.829,-3.8288,-3.8254,-3.8239,-3.8212,-3.8193,-3.8203,-3.8175,-3.8155,-3.8069,-3.8047,-3.8039,-3.8017,-3.8136,-3.8136,-3.8136,-3.8136,-3.8226,-3.8182,-3.8207,-3.8146,-3.8153,-3.81,-3.8085,-3.8096,-3.8048,-3.8083,-3.8062,-3.8097,-3.8024,-3.8006,-3.8133,-3.8133,-3.8134,-3.8134,-3.8134,-3.8137,-3.8117,-3.8109,-3.8063,-3.8028,-3.8029,-3.7984,-3.7991,-3.7996,-3.7976,-3.7957,-3.7957,-3.7958,-3.7967,-3.7967,-3.7967,-3.7967,-3.7966,-3.7966,-3.8046,-3.8039,-3.8001,-3.7976,-3.7958,-3.7934,-3.7924,-3.7905,-3.7886,-3.7895,-3.7895,-3.7909,-3.8018,-3.8044,-3.7961,-3.7962,-3.7963,-3.7963,-3.7964,-3.7908,-3.7943,-3.7885,-3.7867,-3.7841,-3.7807,-3.782,-3.7783,-3.7769,-3.7747,-3.777,-3.7849,-3.7857,-3.7866,-3.7887,-3.7769,-3.7769,-3.7769,-3.7769,-3.7831,-3.7839,-3.7785,-3.7757,-3.7731,-3.774,-3.7675,-3.7669,-3.7666,-3.7659,-3.7678,-3.7708,-3.7717,-3.772,-3.7732,-3.7752,-3.7602,-3.7601,-3.7601,-3.7746,-3.7753,-3.7696,-3.77,-3.7682,-3.7666,-3.7606,-3.7573,-3.7577,-3.7595,-3.7653,-3.766,-3.7709,-3.7725,-3.7737,-3.7756,-3.7793,0,0]}]]